SCP
0 0 0 0 0 0 0 0 0 0 0 0 0 0 0 0 0 0 0 0 0 0 0 0 0 0 0 0 0 0 0 0 0 0 0 0 0 0 0 0 0 0 0
0 0 0 0 0 0 0 0 0 0 0 0 0 0 0 0 0 0 0 0 0 0 0 0 0 0 0 0 0 0 0 0 0 0 0 0 0 0 0 0 0 0 0
0 0 0 0 0 0 0 0 0 0 0 0 0 0 0 0 0 0 0 0 0 0 0 0 0 0 0 0 0 0 0 0 0 0 0 0 0 0 0 0 0 0 0
0 0 0 0 0 0 0 0 0 0 0 0 0 0 0 0 0 0 0 0 0 0 0 0 0 0 0 0 0 0 0 0 0 0 0 0 0 0 0 0 0 0 0
0 0 0 0 0 0 0 0 0 0 0 0 0 0 0 0 0 0 0 0 0 0 0 0 0 0 0 0 0 0 0 0 0 0 0 0 0 0 0 0 0 0 0
0 0 0 0 0 0 0 0 0 0 0 0 0 0 0 0 0 0 0 0 0 0 0 0 0 0 0 0 0 0 0 0 0 0 0 0 0 0 0 0 0 0 0
0 0 0 0 0 0 0 0 0 0 0 0 0 0 0 0 0 0 0 0 0 0 0 0 0 0 0 0 0 0 0 0 0 0 0 0 0 0 0 0 0 0 0
0 0 0 0 0 0 0 0 0 0 0 0 0 0 0 0 0 0 0 0 0 0 0 0 0 0 0 0 0 0 0 0 0 0 0 0 0 0 0 0 0 0 0
0 0 0 0 0 0 0 0 0 0 0 0 0 0 0 0 0 0 0 0 0 0 0 0 0 0 0 0 0 0 0 0 0 0 0 0 0 0 0 0 0 0 0
0 0 0 0 0 0 0 0 0 0 0 0 0 0 0 0 0 0 0 0 0 0 0 0 0 0 0 0 0 0 0 0 0 0 0 0 0 0 0 0 0 0 0
0 0 0 0 0 0 0 0 0 0 0 0 0 0 0 0 0 0 0 0 0 0 0 0 0 0 0 0 0 0 0 0 0 0 0 0 0 0 0 0 0 0 0
0 0 0 0 0 0 0 0 0 0 0 0 0 0 0 0 0 0 0 0 0 0 0 0 0 0 0 0 0 0 0 0 0 0 0 0 0 0 0 0 0 0 0
0 0 0 0 0 0 0 0 0 0 0 0 0 0 0 0 0 0 0 0 0 0 0 0 0 0 0 0 0 0 0 0 0 0 0 0 0 0 0 0 0 0 0
0 0 0 0 0 0 0 0 0 0 0 0 0 0 0 0 0 0 0 0 0 0 0 0 0 0 0 0 0 0 0 0 0 0 0 0 0 0 0 0 0 0 0
0 0 0 0 0 0 0 0 0 0 0 0 0 0 0 0 0 0 0 0 0 0 0 0 0 0 0 0 0 0 0 0 0 0 0 0 0 0 0 0 0 0 0
0 0 0 0 0 0 0 0 0 0 0 0 0 0 0 0 0 0 0 0 0 0 0 0 0 0 0 0 0 0 0 0 0 0 0 0 0 0 0 0 0 0 0
0 0 0 0 0 0 0 0 0 0 0 0 0 0 0 0 0 0 0 0 0 0 0 0 0 0 0 0 0 0 0 0 0 0 0 0 0 0 0 0 0 0 0
0 0 0 0 0 0 0 0 0 0 0 0 0 0 0 0 0 0 0 0 0 0 0 0 0 0 0 0 0 0 0 0 0 0 0 0 0 0 0 0 0 0 0
0 0 0 0 0 0 0 0 0 0 0 0 0 0 0 0 0 0 0 0 0 0 0 0 0 0 0 0 0 0 0 0 0 0 0 0 0 0 0 0 0 0 0
0 0 0 0 0 0 0 0 0 0 0 0 0 0 0 0 0 0 0 0 0 0 0 0 0 0 0 0 0 0 0 0 0 0 0 0 0 0 0 0 0 0 0
0 0 0 0 0 0 0 0 0 0 0 0 0 0 0 0 0 0 0 0 0 0 0 0 0 0 0 0 0 0 0 0 0 0 0 0 0 0 0 0 0 0 0
0 0 0 0 0 0 0 0 0 0 0 0 0 0 0 0 0 0 0 0 0 0 0 0 0 0 0 0 0 0 0 0 0 0 0 0 0 0 0 0 0 0 0
0 0 0 0 0 0 0 0 0 0 0 0 0 0 0 0 0 0 0 0 0 0 0 0 0 0 0 0 0 0 0 0 0 0 0 0 0 0 0 0 0 0 0
0 0 0 0 0 0 0 0 0 0 0 0 0 0 0 0 0 0 0 0 0 0 0 0 0 0 0 0 0 0 0 0 0 0 0 0 0 0 0 0 0 0 0
0 0 0 0 0 0 0 0 0 0 0 0 0 0 0 0 0 0 0 0 0 0 0 0 0 0 0 0 0 0 0 0 0 0 0 0 0 0 0 0 0 0 0
0 0 0 0 0 0 0 0 0 0 0 0 0 0 0 0 0 0 0 0 0 0 0 0 0 0 0 0 0 0 0 0 0 0 0 0 0 0 0 0 0 0 0
Wind_Speed
15 16 18 19 19 20 20 22 21 19 20 20 19 20 20 20 19 18 18 17 17 16 15 15 16 15 12 11 11 12 12 13 16 16 14 15 18 18 16 16 16 16 16
13 14 17 17 18 19 21 21 20 20 19 20 19 20 20 20 20 20 19 18 18 17 17 16 17 13 15 13 12 14 13 14 15 19 16 15 19 18 17 17 15 14 15
11 13 15 16 18 20 20 19 19 19 19 19 20 20 20 20 19 19 19 18 17 17 17 17 16 15 16 14 14 14 12 13 14 16 17 15 15 14 16 16 17 14 15
11 13 15 16 17 17 17 17 18 18 19 20 20 20 19 19 18 17 17 17 17 17 16 16 16 16 16 15 13 15 14 15 15 15 15 15 14 15 14 13 13 12 13
11 13 15 15 15 15 16 16 17 18 18 18 19 19 19 17 16 17 17 17 16 16 16 16 16 18 20 17 13 14 14 13 13 14 14 14 13 12 12 11 13 13 13
13 14 14 13 14 15 15 15 16 17 17 18 19 19 19 15 22 27 20 16 16 16 16 15 16 18 22 25 26 25 21 17 15 14 14 15 15 14 12 12 13 13 14
13 14 13 13 13 14 14 15 16 17 17 18 19 19 20 20 26 27 28 17 16 15 15 14 12 13 18 15 19 23 23 26 25 18 17 17 16 15 15 15 14 15 15
13 13 12 12 13 13 14 15 15 14 15 16 17 19 18 19 26 27 27 20 16 16 15 15 14 14 14 15 14 15 16 17 18 15 15 16 16 16 15 15 15 16 16
14 14 13 12 13 13 14 14 14 13 15 15 15 17 18 18 24 26 25 15 14 16 15 14 14 14 18 20 16 15 16 15 18 22 23 22 24 24 18 12 12 12 13
15 15 14 13 13 14 14 13 12 12 13 13 14 15 17 16 21 25 25 12 13 12 12 13 18 18 19 20 15 14 16 14 12 12 14 16 16 16 19 13 11 11 11
16 16 15 14 13 13 12 11 11 11 11 13 14 14 15 16 18 23 25 13 12 11 10 9 10 18 20 20 18 13 15 14 11 11 11 10 10 9 10 9 9 9 11
16 16 15 14 12 9 11 10 10 10 11 12 12 12 11 13 16 19 24 23 17 12 10 9 9 15 17 18 15 14 17 15 9 9 9 9 9 9 8 9 10 11 12
16 16 15 14 11 10 10 10 9 9 9 9 9 10 9 9 11 20 22 23 23 13 9 13 13 15 15 12 13 15 13 9 8 9 9 10 9 9 9 8 9 10 12
16 16 14 12 11 9 8 7 8 8 9 9 9 9 9 8 9 9 10 12 17 15 10 12 14 14 11 10 11 10 8 7 8 9 9 9 9 8 8 8 8 8 9
15 14 13 11 10 9 8 7 9 9 9 9 9 8 8 9 11 15 11 9 9 9 8 6 6 6 7 7 7 7 6 7 7 7 8 8 8 8 8 8 8 8 9
13 12 10 9 8 8 8 7 11 12 15 17 16 12 9 11 12 16 17 16 15 14 10 7 7 7 7 7 6 6 7 7 7 7 8 8 8 8 8 8 8 9 9
13 13 10 9 8 8 7 7 7 8 13 15 17 17 15 13 14 15 16 16 15 14 9 7 7 7 6 6 6 7 7 7 6 7 8 8 8 8 8 9 8 9 9
13 12 11 9 8 7 7 7 6 6 6 6 11 15 16 15 15 14 14 12 9 10 7 7 7 6 6 6 6 6 6 6 6 7 7 8 8 8 9 9 9 10 10
12 9 9 8 8 7 6 6 6 7 6 6 5 7 12 13 13 13 13 8 7 7 7 7 6 6 6 6 6 6 6 7 7 7 7 8 8 8 9 9 9 13 11
10 13 12 9 7 6 6 6 6 6 6 6 6 5 6 7 7 8 8 7 7 6 6 6 6 6 6 5 6 6 6 7 7 7 7 7 7 8 9 10 10 10 9
9 10 13 9 7 6 6 6 6 6 6 6 5 6 9 7 7 7 7 7 7 6 6 6 5 5 6 5 5 6 8 7 7 7 7 7 7 8 8 9 9 9 9
9 8 8 7 7 6 6 6 6 6 6 6 5 6 11 7 6 6 6 6 6 5 5 5 5 5 5 5 5 6 7 7 7 7 7 7 7 8 8 9 9 9 9
8 9 8 7 6 7 7 6 5 6 6 6 5 5 6 6 6 5 5 5 5 4 4 4 5 4 4 5 5 6 7 7 7 7 7 8 8 8 8 9 10 10 10
8 8 8 7 6 6 5 5 5 5 5 5 5 5 5 5 5 5 5 4 4 4 4 4 4 6 7 5 5 6 6 7 8 7 9 9 8 8 8 9 10 10 10
8 8 7 6 6 5 5 5 4 5 5 5 5 5 5 5 4 4 4 4 4 4 4 4 4 5 7 8 7 7 9 12 12 8 6 7 8 9 9 10 9 9 9
7 7 6 5 5 5 4 4 4 4 4 4 4 4 5 4 4 4 4 4 3 3 4 4 4 5 6 6 8 10 12 12 11 10 6 6 7 8 9 8 10 9 9
Wind_Direction
239 237 236 235 234 233 233 233 231 228 223 220 216 212 210 209 208 209 213 214 218 223 224 229 234 236 241 243 245 247 249 252 263 273 276 279 280 278 277 275 274 275 276
247 243 241 240 237 235 235 234 231 229 225 221 217 214 212 210 208 210 212 213 216 221 225 228 233 234 238 242 245 248 250 252 259 271 276 278 278 278 278 277 276 273 273
256 249 247 243 239 238 238 236 232 230 227 221 218 216 213 211 209 211 212 214 218 222 225 228 232 233 239 241 243 248 251 254 256 263 271 274 276 276 279 276 275 273 274
267 257 253 249 245 244 242 238 233 229 227 223 219 218 215 213 210 209 211 215 218 223 226 229 232 232 237 241 245 249 252 256 257 260 266 271 274 276 276 277 278 276 276
277 266 261 259 254 249 244 239 234 230 228 225 221 219 216 212 208 205 209 212 217 223 227 229 232 233 237 240 241 246 250 253 257 261 266 271 274 276 277 279 279 281 278
286 276 273 267 259 252 247 242 237 232 228 224 223 220 217 213 212 210 206 212 217 222 227 231 234 238 243 247 251 254 254 258 263 267 271 273 276 279 281 279 280 281 282
291 284 279 272 264 256 249 242 237 233 228 225 223 220 219 216 214 213 212 209 216 220 224 229 233 237 242 247 255 260 264 265 265 267 270 273 278 279 281 279 276 276 278
296 291 287 279 271 263 254 246 240 234 230 227 224 221 221 218 215 216 216 214 220 223 225 229 235 240 241 246 251 257 259 261 264 264 265 270 272 275 273 273 276 277 276
301 300 296 288 278 269 259 251 243 236 231 227 224 221 220 219 215 217 216 216 221 224 226 229 235 241 246 250 255 259 262 264 264 263 264 266 268 271 272 273 272 273 276
308 306 301 293 283 273 264 257 247 238 234 229 226 222 220 219 215 215 215 215 221 223 225 228 234 239 247 252 255 260 266 271 271 271 268 271 273 273 274 269 269 268 274
310 305 302 296 287 279 271 260 248 238 233 229 228 224 222 220 216 215 215 211 217 221 225 226 229 239 247 254 258 262 268 276 276 273 272 272 269 265 262 259 254 255 262
309 305 302 299 293 281 271 262 248 236 231 229 227 225 222 219 216 217 217 218 216 220 225 229 233 242 250 257 262 266 275 282 277 275 274 274 274 273 271 266 258 252 253
308 306 305 302 294 283 271 261 248 234 228 226 224 223 219 213 215 218 220 222 222 221 225 232 239 246 253 259 263 270 276 274 273 273 274 277 280 281 279 273 264 255 255
307 307 305 301 295 284 269 254 244 234 228 225 223 223 218 211 207 207 212 221 226 226 230 236 241 247 250 257 264 266 262 262 268 272 276 280 282 280 275 274 273 271 268
306 304 303 298 294 287 273 258 249 239 232 227 227 223 218 215 209 202 201 207 209 214 212 220 226 233 239 246 251 255 256 259 263 268 275 279 280 279 277 276 273 272 270
303 303 302 299 294 286 280 271 249 245 244 238 235 231 228 227 216 209 209 211 211 209 209 220 225 232 241 249 254 257 258 260 265 270 274 276 278 280 281 279 273 270 271
299 299 298 294 289 284 279 274 272 253 242 241 237 233 229 222 216 210 209 211 212 210 216 222 228 234 241 247 252 256 260 263 267 269 271 274 276 278 280 280 277 275 273
298 295 293 289 285 279 273 267 263 260 253 240 233 229 225 222 216 212 207 203 208 211 217 223 228 232 238 244 248 254 260 264 264 267 270 272 274 276 278 279 278 278 279
298 294 292 288 282 275 269 262 256 251 248 243 231 220 218 217 212 209 204 205 207 211 213 220 226 230 236 242 247 253 258 262 265 269 271 272 273 274 276 279 280 281 280
295 293 294 289 282 273 263 256 250 244 240 235 228 217 202 202 204 203 204 205 210 212 213 219 224 229 234 239 245 250 256 260 263 264 269 272 273 274 276 279 280 281 279
297 296 294 288 277 269 261 253 247 241 235 232 227 216 204 205 206 204 203 205 208 210 214 218 223 227 231 236 242 249 255 261 264 266 269 273 275 276 277 278 280 279 279
295 293 291 284 277 268 261 251 244 238 232 231 225 214 213 213 212 209 205 205 206 209 211 216 222 227 229 235 243 252 258 262 265 267 270 273 275 276 277 279 281 282 280
294 293 290 282 274 268 262 249 238 232 227 222 217 207 207 211 211 209 205 201 197 200 203 211 221 227 231 238 245 252 258 263 266 269 272 275 277 278 279 281 282 283 282
292 291 288 284 278 268 261 252 237 228 222 216 210 207 206 209 208 204 197 189 191 197 204 212 223 232 238 248 252 255 259 266 270 266 266 270 276 279 281 283 282 282 282
294 291 288 284 279 271 263 253 238 224 215 209 206 203 202 203 203 196 188 184 190 200 207 215 223 233 241 251 261 267 270 275 280 281 271 270 275 279 283 284 283 284 283
296 293 288 283 278 270 258 246 231 217 210 203 201 200 196 195 196 190 180 180 188 197 207 219 232 244 253 257 261 271 279 284 289 288 286 276 279 283 288 286 287 285 285